Flag for Austria Weather past 2 weeks in Fürstenfeld, Styria, Austria

Now
59 °F

Rain. Overcast.


Feels Like: 59 °F
Forecast: 40 / 62 °F
Wind: 1 mph from Southwest

Location: Murska Sobota

Current Time: Sep 22, 2014 at 8:32:42 AM

Latest Report: Sep 22, 2014 at 7:00 AM


Visibility: 4 mi

Pressure: 29.84 "Hg

Humidity: 97%

Dew point: 59 °F

Location of FürstenfeldLocation

Historic Weather in Fürstenfeld — Graph

°F

Fürstenfeld temperature yesterday

Maximum temperature yesterday: 79 °F (at 4:00 PM)
Minimum temperature yesterday: 60 °F (at 11:00 PM)
Average temperature yesterday: 66 °F

Past Weeks' High & Low Weather Summary

 TemperatureHumidityPressure
High80 °F (Sep 9, 3:00 PM)100% (Sep 7, 7:00 AM)30.13 "Hg (Sep 7, 7:00 AM)
Low46 °F (Sep 18, 7:00 AM)48% (Sep 21, 4:00 PM)29.82 "Hg (Sep 21, 6:00 PM)
Average61 °F90%29.99 "Hg
* Reported Sep 7 7:00 AM — Sep 22 7:00 AM, Fürstenfeld, Weather by CustomWeather, © 2014

Note: Actual official high and low records may vary slightly from our data, if they occured in-between our weather recording intervals... More about our weather records

Advertising

Fürstenfeld weather history for previous 24 hours

 ConditionsComfort  
Time TempWeatherWind HumidityBarometerVisibility
7:00 AM
Sep 22
59 °FRain. Overcast.1 mph97%29.84 "Hg4 mi
6:00 AM60 °FCool.6 mph99%29.85 "HgN/A
5:00 AM59 °FCool.2 mph99%29.83 "HgN/A
4:00 AM60 °FCool.1 mph99%29.83 "HgN/A
3:00 AM60 °FCool.2 mph99%29.83 "HgN/A
2:00 AM59 °FCool.2 mph98%29.85 "HgN/A
1:00 AM60 °FCool.1 mph99%29.86 "HgN/A
12:00 AM60 °FCool.No wind98%29.88 "HgN/A
11:00 PM
Sep 21
60 °FCool.1 mph98%29.88 "HgN/A
10:00 PM61 °FCool.1 mph96%29.89 "HgN/A
9:00 PM61 °FCool.3 mph92%29.86 "HgN/A
8:00 PM66 °FThunderstorms. Overcast.8 mph75%29.85 "Hg6 mi
7:00 PM71 °FMild.1 mph77%29.83 "HgN/A
6:00 PM76 °FMild.1 mph63%29.82 "HgN/A
5:00 PM78 °FWarm.2 mph51%29.83 "HgN/A
4:00 PM79 °FWarm.3 mph48%29.84 "HgN/A
2:00 PM78 °FPassing clouds.1 mph51%29.90 "Hg6 mi
11:00 AM72 °FMild.1 mph73%29.94 "HgN/A
10:00 AM68 °FMild.2 mph82%29.96 "HgN/A
9:00 AM65 °FMild.1 mph89%29.95 "HgN/A
8:00 AM62 °FPartly sunny.2 mph97%29.95 "Hg6 mi
Weather by CustomWeather, © 2014

See weather overviewHow to use our weather pages